Regional Weather Roundup
Issued by NWS Wakefield, VA

Home | Current Version | Previous Version | Graphics & Text | Print | Product List | Glossary On
Versions: 1 2 3 4 5 6 7 8 9 10 11 12 13 14 15 16 17 18 19 20 21 22 23 24 25 26 27 28 29 30 31 32 33 34 35 36 37 38 39 40 41 42 43 44 45 46 47 48 49 50
186
ASUS41 KAKQ 202115
RWRAKQ

REGIONAL WEATHER ROUNDUP
NATIONAL WEATHER SERVICE WAKEFIELD VA
500 PM EDT FRI APR 20 2018

Note: "fair" indicates few or no clouds below 12,000 feet with no
significant weather and/or obstructions to visibility. * = Denotes
station may not report precipitation (e.g., rain,snow,etc.),
thunder or fog.

VAZ042-051-052>054-056-202200-
NORTHERN VIRGINIA

CITY           SKY/WX    TMP DP  RH WIND       PRES   REMARKS
WASH NATIONAL  FAIR      60  26  27 N16G26    30.28R
DULLES         FAIR      60  26  27 NW13G23   30.27S
FORT BELVOIR   FAIR      61  23  23 NW12G20   30.26S
QUANTICO       FAIR      62  26  25 NW8       30.28S
FREDERICKSBRG* FAIR      61  28  28 NW8G18    30.26S
STAFFORD*      FAIR      62  26  25 N14G21    30.31R
WARRENTON      FAIR      62  19  18 NW14G20   30.27S
CULPEPER*      FAIR      62  20  19 N15G22    30.28S
MANASSAS*      FAIR      61  28  28 NW15G22   30.28R
LEESBURG*      FAIR      61  30  31 N20G28    30.28S
WINCHESTER     FAIR      55  27  33 NW16G24   30.30S
FRONT ROYAL*   FAIR      59  27  29 NW10G16   30.27S
LURAY*         FAIR      59  23  25 NW8       30.28S
$$

VAZ048-049-060>072-079>083-202200-
CENTRAL AND SOUTH CENTRAL VIRGINIA

CITY           SKY/WX    TMP DP  RH WIND       PRES   REMARKS
RICHMOND       FAIR      63  22  20 W10       30.26S
CHESTERFIELD*  FAIR      62  23  22 W6        30.27
PETERSBURG*    FAIR      62  18  17 W13G18    30.27S
HANOVER        FAIR      63  22  20 NW9       30.28R
TAPPAHANNOCK*  FAIR      61  27  27 NW7G16    30.27S
QUINTON*       FAIR      61  24  24 N13G20    30.26S
CHARLOTTSVILLE FAIR      64  18  17 N14G21    30.27S
GORDONSVILLE*  FAIR      62  22  21 NW8       30.26S
ORANGE*        FAIR      61  23  23 CALM      30.27S
LOUISA*        FAIR      62  22  20 NW8       30.30F
BUMPASS*       FAIR      62  18  18 NW5       30.27R
FARMVILLE*     FAIR      66  12  12 W3        30.26S
CREWE*         FAIR      63  22  20 W6        30.27S
FORT PICKETT*  FAIR      63  21  20 NW8       30.27S
CHASE CITY*    FAIR      62  21  20 N7        30.28S
CLARKSVILLE*   FAIR      63  19  19 CALM      30.28S
SOUTH HILL*    FAIR      61  23  23 W3        30.34S
LAWRENCEVILLE* FAIR      62  20  19 NW3       30.27S
EMPORIA*       FAIR      61  25  25 W8G17     30.29S
$$

VAZ088>098-202200-
SOUTHEAST VIRGINIA

CITY           SKY/WX    TMP DP  RH WIND       PRES   REMARKS
NORFOLK        FAIR      56  30  37 NE7       30.27S
VIRGINIA BEACH FAIR      56  31  38 NE7       30.27R
NORFOLK NAVAL  FAIR      56  31  38 NE7       30.28S
WEST POINT*    FAIR      62  23  22 NW7       30.28S
SALUDA*        FAIR      58  28  32 NW9G16    30.27R
NEWPORT NEWS   FAIR      62  27  26 NW12G17   30.26S
LANGLEY AFB    FAIR      56  34  43 E10       30.27R
FORT EUSTIS    FAIR      60  28  29 W8        30.24S
WILLIAMSBURG*  FAIR      64  18  16 N10G17    30.27S
HR EXEC AP*    FAIR      61  26  26 VRB3      30.27S
FRANKLIN*      FAIR      61  24  24 W13G20    30.28R
US460-WAKEFLD  FAIR      62  22  21 W6        30.27S
$$

VAZ020-022-025-037-045-202200-
WEST CENTRAL AND SOUTHWEST VIRGINIA

CITY           SKY/WX    TMP DP  RH WIND       PRES   REMARKS
STAUNTON*      FAIR      59  22  23 N13       30.29S
WAYNESBORO*    FAIR      59  20  21 N8G16     30.27S
HOT SPRINGS VA FAIR      51   2  13 NW12G17   30.29S
LYNCHBURG      FAIR      63  15  15 W6        30.27S
DANVILLE       FAIR      63  21  20 NW5       30.28F
SOUTH BOSTON*  FAIR      64  17  16 W5        30.28S
MARTINSVILLE   FAIR      65  21  19 N7        30.31S
ROANOKE        FAIR      64  19  17 N8        30.29F
BLACKSBURG     FAIR      59  20  22 NW7       30.33S
DUBLIN*        FAIR      58  17  19 N7        30.32S
MARION*        FAIR      59  19  20 W8        30.33F
HILLSVILLE*    FAIR      58  11  16 N10       30.29S
RICHLANDS*     FAIR     N/A N/A N/A W3        30.33S
WISE*          FAIR      57  25  28 NE7       30.35S
ABINGDON*      FAIR      62  24  23 W5        30.32F
$$

MDZ021>025-VAZ099-100-202200-
SOUTHERN MARYLAND AND THE DELMARVA PENINSULA

CITY           SKY/WX    TMP DP  RH WIND       PRES   REMARKS
PATUXENT RIVER FAIR      61  28  28 NW20      30.26R
BAY BRIDGE APT FAIR      55  30  38 N12       30.27R
LEONARDTOWN    FAIR      59  25  27 NW6G21    30.27S
DOVER          MOSUNNY   55  28  36 W18       30.24S
GEORGETOWN     FAIR      56  27  32 NW12G23   30.25R
EASTON         SUNNY     57  27  30 N13G20    30.30R
CAMBRIDGE      SUNNY     54  28  37 NW12      30.27R
SALISBURY      FAIR      55  28  35 NW12      30.26R
TANGIER        FAIR      55  30  38 N8        30.28S
OCEAN CITY     FAIR      55  29  36 NW14G22   30.26R
WALLOPS ISLAND FAIR      57  29  34 NW15G23   30.26R
ACCOMACK*      FAIR      55  30  39 NW10G16   30.28R
$$

NCZ012>017-030>032-202200-
NORTH CENTRAL AND EASTERN NORTH CAROLINA

CITY           SKY/WX    TMP DP  RH WIND       PRES   REMARKS
ROANOKE RAPIDS FAIR      61  28  29 NW3G16    30.28S
RALEIGH        FAIR      65  29  25 VRB5      30.28F
ELIZABETH CITY FAIR      62  30  29 N6        30.27S
AHOSKIE*       FAIR      61  26  27 N10       30.28S
EDENTON*       FAIR      63  28  26 N10       30.28S
CURRITUCK*     NOT AVBL
KILL DEVIL HLS FAIR      50  31  48 E3        30.29R
MANTEO         FAIR      51  32  49 E12       30.30R
CAPE HATTERAS  FAIR      53  35  50 N10       30.29S
TARBORO*       NOT AVBL
GOLDSBORO      SUNNY     65  24  21 NW6       30.26F
WASHINGTON     FAIR      62  25  24 NW9       30.28S
GREENVILLE     FAIR      63  27  25 N6        30.28F
NEW BERN       FAIR      62  31  31 VRB6      30.28S
WILMINGTON     FAIR      61  36  39 SE7       30.27S
$$

VAZ048-202200-
ELSEWHERE

CITY           SKY/WX    TMP DP  RH WIND       PRES   REMARKS
HARRISBURG PA  FAIR      56  28  34 NW15      30.25R
BALTIMORE      FAIR      58  27  30 NW10G23   30.25S
ANNAPOLIS      FAIR      58  31  35 NW13G21   30.26R
ANDREWS AFB    FAIR      58  26  29 NW15G22   30.26R
PHILADELPHIA   FAIR      53  24  32 NW22      30.25R
HENDERSON NC   FAIR      60  21  22 CALM      30.28S
GREENSBORO     FAIR      65  22  19 VRB5      30.27F
ROCKY MOUNT    FAIR      63  24  22 NW7       30.28S
$$

VAZ100-202200-
MARINE

STATION/POSITION TIME  TEMP    WIND        PRES    WAVE   SWELL
                       AIR SEA DIR/SP/G            HT/PER HT/PER
                 (UTC) (F)     (DEG/KT/KT) (MB)    (FT/S) (FT/S)
BRANDYWINE LGT   2042   50     330/ 12/ 15 1024.5R
CAPE MAY NJ      2048   51 50  330/ 13/ 17 1023.7R
LEWES DE         2048   51 50  350/ 12/ 15 1024.2R
15NM E FENWICK I 2050   45 46  340/ 12/ 14 1024.5R   3/ 4   2/14
OCEAN-CITY-INLET 2048   53 50  330/ 13/ 18 1024.9R
WACHAPREAGUE VA  2048   55 58  290/  5/ 12 1025.0R
THOMAS POINT MD  2100   55 51  340/ 15/ 19 1025.6R
GOOSES REEF MD   2100   53     110/  4/  6 1025.5
COVE POINT MD    2048   51      50/  5/  6 1025.5R
SOLOMONS ISLAND  2048   56 53  320/  8/ 12 1024.4R
BISHOPS HEAD MD  2048   53 56  270/  9/ 12 1025.3R
PINEY POINT MD   2048          310/ 13/ 14   N/A
POTOMAC MD       2100   52 53   90/  8/ 16 1026.2    1/ 3
CAMBRIDGE MD     2048   56 54              1025.7R
LEWISETTA VA     2048   56 55  320/ 12/ 15 1024.9F
RAPPAHANNOCK LGT 2048          360/  7/  8 1026.0R
YORK RVR RNG VA  2048   52     130/ 10/ 11 1025.4S
YORKTOWN VA      2048   58 56  310/ 12/ 13 1024.7R
DOMINION TERM VA 2048   57     310/ 13/ 14 1024.9F
KIPTOPEKE VA     2048      54  310/  8/  9   N/A
CAPE HENRY VA    2048   51      20/  6/  7   N/A
WILLOUBY STN VA  2048   52      80/  9/ 10 1025.1R
S CRANEY ISL VA  2048   58     310/ 10/ 14 1024.8S
CAPE HENRY BUOY  2100      51                N/A     2/15
64NM E OF VA BCH 2050   46 49  340/ 10/ 14 1026.2R   4/ 6   3/ 6
DUCK PIER NC     2048   48 52   60/  7/ 11 1025.4R
44100 DUCK FRF   2015      50                N/A     4/ 6
44056 DUCK FRF   2100      51                N/A     3/ 6
OREGON INLET NC  2042   48 53   30/ 11/ 14 1025.6F
HATTERAS NC      2048   51 60   50/  9/ 12 1025.5S
DIAMOND SHLS NC  2100   51 70   20/ 12/ 16 1026.1
CAPE LOOKOUT NC  2100           90/ 10/ 12 1025.4S
$$




USA.gov is the U.S. government's official web portal to all federal, state and local government web resources and services.